Regional Weather Roundup
Issued by NWS Sterling, VA

Home | Current Version | Previous Version | Graphics & Text | Print | Product List | Glossary On
Versions: 1 2 3 4 5 6 7 8 9 10 11 12 13 14 15 16 17 18 19 20 21 22 23 24 25 26 27 28 29 30 31 32 33 34 35 36 37 38 39 40 41 42 43 44 45 46 47 48 49 50
000
ASUS41 KLWX 030410
RWRLWX

REGIONAL WEATHER ROUNDUP
NATIONAL WEATHER SERVICE BALTIMORE MD/WASHINGTON DC
1200 AM EDT SUN MAY 03 2015

Note: "FAIR" indicates few or no clouds below 12,000 feet
with no significant weather and/or obstructions to visibility.
 TC=TEMPERATURE CELSIUS

 * =Non NWS site. Station does not report precipitation (e.g. rain,
    snow, etc.), thunder, or fog.

DCZ001-MDZ009-015-VAZ040>042-051-053>054-030500-
WASHINGTON METRO

CITY           SKY/WX    TMP DP  RH WIND       PRES   REMARKS
WASHINGTON NAT CLEAR     61  46  57 SW5       30.03S
DULLES         PTCLDY    56  42  59 S6        30.03S
ANDREWS AFB    CLEAR     55  46  72 S6        30.02S
FT BELVOIR     CLEAR     50  47  90 CALM      30.03S
QUANTICO       CLEAR     57  48  72 CALM      30.04S
COLLEGE PARK*  CLEAR     54  46  76 CALM      30.02S
LEESBURG*      CLEAR     61  45  55 SW8       30.03S
MANASSAS*      CLEAR     50  48  93 CALM      30.04S
GAITHERSBURG*  CLEAR     54  43  66 CALM      30.06S

$$

MDZ006>007-011-014-030500-
BALTIMORE METRO

CITY           SKY/WX    TMP DP  RH WIND       PRES   REMARKS
BWI AIRPORT    MOCLDY    57  45  64 SW5       30.01R
MD SCIENCE CTR   N/A     62  45  53 MISG      30.01S
MARTIN STATE   PTCLDY    55  52  88 CALM      30.02S
ANNAPOLIS      CLEAR     57  48  72 CALM      30.01S
FORT MEADE*    PTCLDY    48  45  87 CALM      30.04S

$$

MDZ012-015-019>023-030500-
MARYLAND EASTERN SHORE

CITY           SKY/WX    TMP DP  RH WIND       PRES   REMARKS
OCEAN CITY     CLEAR     51  44  77 S3        30.06S
SALISBURY      CLEAR     47  44  90 S3        30.05S
BAY BRIDGE AP*   N/A    N/A N/A N/A S5        30.02S
CAMBRIDGE*     CLEAR     57  54  88 S6        30.04S
EASTON*        CLEAR     58  51  77 S5        30.07R

$$

MDZ017>025-030500-
SOUTHERN MARYLAND

CITY           SKY/WX    TMP DP  RH WIND       PRES   REMARKS
PATUXENT RIVER CLEAR     58  47  66 SW10      30.03S
ST INIGOES     CLEAR     58  48  69 SW6       30.04S
LEONARDTOWN*   CLEAR     55  45  67 SW3       30.06S

$$

MDZ003>005-030500-
NORTH CENTRAL MARYLAND

CITY           SKY/WX    TMP DP  RH WIND       PRES   REMARKS
FREDERICK*     CLEAR     55  43  62 S5        30.04S
HAGERSTOWN APT CLEAR     61  39  44 S5        30.02R
WESTMINSTER*   CLEAR     61  41  48 SW6       30.01S

$$

MDZ501>502-030500-
WESTERN MARYLAND

CITY           SKY/WX    TMP DP  RH WIND       PRES   REMARKS
OAKLAND*       CLEAR     55  36  47 W6        30.11S
CUMBERLAND*    CLEAR     55  37  50 CALM      30.09S

$$

VAZ025>031-030500-
SHENANDOAH VALLEY

CITY           SKY/WX    TMP DP  RH WIND       PRES   REMARKS
WINCHESTER*    PTCLDY    59  34  38 SW5       30.04S
FRONT ROYAL*   FAIR      54  43  66 S7        30.05R
LURAY*         MOCLDY    54  48  82 CALM      30.07S
NEW MARKET*    MOCLDY    48  45  90 CALM      30.07S
STAUNTON*      PTCLDY    47  43  86 CALM      30.11S
WAYNESBORO*    MOCLDY    51  41  67 SW6       30.10S

$$

WVZ021-048>050-054>055-030500-
EASTERN WEST VIRGINIA PANHANDLE

CITY           SKY/WX    TMP DP  RH WIND       PRES   REMARKS
MARTINSBURG    CLEAR     53  41  63 SW3       30.03S
PETERSBURG*    CLEAR     48  41  77 CALM      30.10R

$$

VAZ036>039-050-030500-
CENTRAL FOOTHILLS

CITY           SKY/WX    TMP DP  RH WIND       PRES   REMARKS
CHARLOTTESVILL PTCLDY    55  43  63 CALM      30.07R
CULPEPER*      NOT AVBL
ORANGE*        PTCLDY    50  46  87 S3        30.08S
GORDONSVILLE*  FAIR      48  46  92 CALM      30.06S
WARRENTON*     FAIR      47  46  97 CALM      30.04S

$$

VAZ055>057-030500-
NORTH AND CENTRAL PIEDMONT

CITY           SKY/WX    TMP DP  RH WIND       PRES   REMARKS
FREDERICKSBRG* CLEAR     55  49  81 CALM      30.04S
STAFFORD*      CLEAR     49  32  51 CALM      30.08S

$$

NCZ024-NYZ072-PAZ021-071-VAZ022-071-030500-
OTHER REGIONAL OBSERVATIONS

CITY           SKY/WX    TMP DP  RH WIND       PRES   REMARKS
NEW YORK CITY  MOCLDY    52  35  52 CALM      30.07S
PHILADELPHIA   PTCLDY    54  43  66 S6        30.04R
PITTSBURGH     MOCLDY    58  40  51 CALM      30.06S
ROANOKE        MOCLDY    56  45  66 CALM      30.13R
RICHMOND       PTCLDY    60  48  64 SW7       30.06S
RALEIGH        FAIR      52  49  89 CALM      30.11S

$$

ANZ530>537-030500-
MARINE OBSERVATIONS

STATION/POSITION TIME  TEMP    WIND        PRES
                       AIR SEA DIR/SP/G
                 (UTC) (F)     (DEG/KT/KT) (MB)
THOMAS PT LIGHT  0400   61 57  220/  8/  8 1017.2R
BALT KEY BRIDGE  0300   63     210/  8/  9 1015.7R
COVE POINT       0300   62     240/ 14/ 19 1017.5R
LEWISETTA        0300   60 62              1017.0S
SOLOMONS ISLAND  0306      60                N/A
PINEY POINT      0300          240/  6/  9   N/A

$$



USA.gov is the U.S. government's official web portal to all federal, state and local government web resources and services.